Retour au catalogue

STARLINK-11362

ActifCommunicationsVLEO
NORAD 61535·PAYLOAD·🇺🇸 United States

Lancé Oct 15, 2024 depuis Vandenberg Space Force Base

Loading…

Prochains Passages (prochaines 24 heures)

TLE

FraisSource: CelesTrak SupGP

Époque: Sep 14, 2026, 21:12 UTC

1 61535C 24184D   26257.88381944  .00063373  00000+0  52182-3 0  2575
2 61535  53.1575  23.4658 0001075  79.0108 306.2961 15.69687439    10

Suivez STARLINK-11362 en temps réel avec AllMySat

Download on the App Store